千帆星座-12 (QIANFAN-12)

导读

QIANFAN-12 是中国北斗卫星导航系统的重要组成部分,主要用于提供高精度定位、导航和授时服务。该卫星采用先进技术和稳定平台,具备较强的抗干扰能力和全球覆盖能力,广泛应用于交通、农业、通信、应急救援等多个领域。QIANFAN-12 的成功发射和运行,进一步提升了北斗系统的整体性能和服务水平,增强了中国在全球卫星导航领域的竞争力和自主可控能力。

Basic Information
目录编号:
60390
目录名称:
QIANFAN-12
国际标识:
2024-140M
轨道中心:
EARTH
卫星名称:
千帆星座-12 (QIANFAN-12)
卫星全名:
千帆星座-12 (QIANFAN-12)
卫星状态:
在轨 (已飞行676 天)
发射日期:
2024-08-06 UTC
国别 :
中国 (CN)
星等 :
--
Orbit Information
数据来源 国际轨道数据 AOE轨道数据
星历时间 2026-06-13T03:03:16+0800
7小时前
查看轨道信息
2026-06-12T04:00:00+0800
1天前
查看轨道信息
半长轴 7446.676km 7446.675km
偏心率 0.0014212 0.001425
轨道倾角 88.971° 88.971°
近地点辐角 48.245° 51.552°
升交点赤经 280.389° 280.488°
平近点角 311.992° 319.437°
近地点 1057.955km 1057.926km
远地点 1079.123km 1079.15km
周期 106.587分钟 106.587分钟
每日圈数 13.510116 13.510121
Detailed Information
运营商:
上海垣信卫星科技有限公司
运营商所在国:
中国
使用方式:
暂无
Satellite Introduction
千帆星座,也被称为“G60星链”计划,是中国版“星链”的重要组成部分,旨在打造一个由1.4万多颗低轨宽频多媒体卫星构成的庞大星座。千帆星座计划由上海垣信卫星科技有限公司负责实施,于2023年启动建设。该项目是我国第二个低轨卫星大星座,旨在通过构建庞大的卫星网络,为全球用户提供高质量的通信和宽带互联网服务。
2D Orbit Map
3D Orbit Map
Orbit Altitude Analysis Chart
Orbit Inclination Analysis Chart
Orbit Comprehensive Analysis Chart
View Comprehensive Chart